Flag for United Kingdom Weather past 2 weeks in Brentwood, England, United Kingdom

Now
58 °F

Cool.


Feels Like: 55 °F
Forecast: 43 / 56 °F
Wind: 17 mph from Southwest

Location: Gravesend-Broadness

Current Time: Mar 28, 2015 at 1:01:16 PM

Latest Report: Mar 28, 2015 at 12:00 PM


Visibility: N/A

Pressure: 29.85 "Hg

Humidity: 70%

Dew point: 48 °F

Location of BrentwoodLocation

Historic Weather in Brentwood — Graph

°F

Brentwood temperature yesterday

Maximum temperature yesterday: 55 °F (at 4:00 PM)
Minimum temperature yesterday: 41 °F (at 6:00 AM)
Average temperature yesterday: 47 °F

Past Weeks' High & Low Weather Summary

 TemperatureHumidityPressure
High55 °F (Mar 27, 4:00 PM)96% (Mar 17, 6:00 AM)30.52 "Hg (Mar 17, 6:00 AM)
Low29 °F (Mar 23, 2:00 AM)41% (Mar 27, 2:00 PM)29.55 "Hg (Mar 26, 9:00 AM)
Average44 °F77%30.18 "Hg
* Reported Mar 13 11:00 AM — Mar 28 11:00 AM, Brentwood, Weather by CustomWeather, © 2015

Note: Actual official high and low records may vary slightly from our data, if they occured in-between our weather recording intervals... More about our weather records

Advertising

Brentwood weather history for previous 24 hours

 ConditionsComfort  
Time TempWeatherWind HumidityBarometerVisibility
11:00 AM
Sat, Mar 28
55 °FCool.16 mph80%29.89 "HgN/A
10:00 AM55 °FCool.16 mph82%29.90 "HgN/A
9:00 AM54 °FCool.14 mph88%29.91 "HgN/A
8:00 AM51 °FCool.8 mph91%29.93 "HgN/A
7:00 AM49 °FCool.8 mph92%29.95 "HgN/A
6:00 AM48 °FCool.6 mph93%29.97 "HgN/A
5:00 AM47 °FCool.7 mph93%29.98 "HgN/A
4:00 AM46 °FCool.5 mph92%30.01 "HgN/A
3:00 AM46 °FCool.5 mph90%30.04 "HgN/A
2:00 AM46 °FCool.8 mph88%30.07 "HgN/A
1:00 AM44 °FQuite cool.3 mph88%30.10 "HgN/A
12:00 AM45 °FQuite cool.7 mph87%30.11 "HgN/A
11:00 PM
Fri, Mar 27
44 °FQuite cool.8 mph84%30.14 "HgN/A
10:00 PM44 °FQuite cool.7 mph79%30.14 "HgN/A
8:00 PM46 °FCool.10 mph70%30.14 "HgN/A
7:00 PM48 °FCool.7 mph68%30.14 "HgN/A
6:00 PM50 °FCool.6 mph53%30.13 "HgN/A
5:00 PM54 °FCool.6 mph46%30.12 "HgN/A
4:00 PM55 °FRefreshingly cool.5 mph42%30.12 "HgN/A
3:00 PM53 °FCool.9 mph41%30.13 "HgN/A
2:00 PM53 °FCool.8 mph41%30.13 "HgN/A
1:00 PM52 °FCool.8 mph45%30.14 "HgN/A
Weather by CustomWeather, © 2015

See weather overviewHow to use our weather pages